Time,TemperatureF,DewpointF,PressureIn,WindDirection,WindDirectionDegrees,WindSpeedMPH,WindSpeedGustMPH,Humidity,HourlyPrecipIn,Conditions,Clouds,dailyrainin,SoftwareType,DateUTC
2013-06-02 00:10:00,65.9,60.6,29.73,SW,225,9.0,18.0,83,0.00,,,0.00,WUHU216DAVISVP2,2013-06-02 04:10:00,
2013-06-02 00:11:00,65.9,60.6,29.73,SW,231,9.0,18.0,83,0.00,,,0.00,WUHU216DAVISVP2,2013-06-02 04:11:00,
2013-06-02 00:16:00,65.5,60.2,29.73,SW,217,14.0,18.0,83,0.00,,,0.00,WUHU216DAVISVP2,2013-06-02 04:16:00,
2013-06-02 00:32:00,64.5,59.6,29.74,SW,215,6.0,16.0,84,0.00,,,0.00,WUHU216DAVISVP2,2013-06-02 04:32:00,
2013-06-02 00:37:00,64.5,59.6,29.74,SSW,194,5.0,16.0,84,0.00,,,0.00,WUHU216DAVISVP2,2013-06-02 04:37:00,
2013-06-02 00:54:00,64.1,59.5,29.74,SW,217,7.0,13.0,85,0.00,,,0.00,WUHU216DAVISVP2,2013-06-02 04:54:00,
2013-06-02 00:59:00,64.0,59.4,29.74,SW,218,8.0,13.0,85,0.00,,,0.00,WUHU216DAVISVP2,2013-06-02 04:59:00,
2013-06-02 01:04:00,63.8,59.5,29.74,SSW,200,7.0,13.0,86,0.00,,,0.00,WUHU216DAVISVP2,2013-06-02 05:04:00,
2013-06-02 01:16:00,63.5,59.2,29.74,SW,217,11.0,15.0,86,0.00,,,0.00,WUHU216DAVISVP2,2013-06-02 05:16:00,
2013-06-02 01:21:00,63.5,59.6,29.75,SSW,210,10.0,16.0,87,0.00,,,0.00,WUHU216DAVISVP2,2013-06-02 05:21:00,
2013-06-02 01:26:00,63.4,59.5,29.75,SSW,210,13.0,18.0,87,0.00,,,0.00,WUHU216DAVISVP2,2013-06-02 05:26:00,
2013-06-02 01:38:00,62.9,59.3,29.75,SSW,212,13.0,18.0,88,0.00,,,0.00,WUHU216DAVISVP2,2013-06-02 05:38:00,
2013-06-02 01:43:00,62.7,59.4,29.75,SSW,207,10.0,17.0,89,0.00,,,0.00,WUHU216DAVISVP2,2013-06-02 05:43:00,
2013-06-02 02:00:00,62.1,59.4,29.75,SW,226,7.0,15.0,91,0.00,,,0.00,WUHU216DAVISVP2,2013-06-02 06:00:00,
2013-06-02 02:05:00,62.0,59.3,29.75,SW,231,10.0,15.0,91,0.00,,,0.00,WUHU216DAVISVP2,2013-06-02 06:05:00,
2013-06-02 02:22:00,62.0,59.6,29.75,SW,236,11.0,14.0,92,0.00,,,0.00,WUHU216DAVISVP2,2013-06-02 06:22:00,
2013-06-02 02:27:00,62.0,59.6,29.75,WSW,246,14.0,15.0,92,0.00,,,0.00,WUHU216DAVISVP2,2013-06-02 06:27:00,
2013-06-02 02:44:00,62.1,60.0,29.74,SW,235,11.0,16.0,93,0.00,,,0.00,WUHU216DAVISVP2,2013-06-02 06:44:00,
2013-06-02 02:49:00,62.1,60.0,29.75,WSW,240,10.0,15.0,93,0.00,,,0.00,WUHU216DAVISVP2,2013-06-02 06:49:00,
2013-06-02 02:54:00,62.0,59.9,29.75,SW,233,13.0,15.0,93,0.00,,,0.00,WUHU216DAVISVP2,2013-06-02 06:54:00,
2013-06-02 03:06:00,61.9,59.8,29.75,SW,233,13.0,16.0,93,0.00,,,0.00,WUHU216DAVISVP2,2013-06-02 07:06:00,
2013-06-02 03:11:00,61.8,59.7,29.75,WSW,241,12.0,16.0,93,0.00,,,0.00,WUHU216DAVISVP2,2013-06-02 07:11:00,
2013-06-02 03:16:00,61.8,60.1,29.75,WSW,248,6.0,16.0,94,0.00,,,0.00,WUHU216DAVISVP2,2013-06-02 07:16:00,
2013-06-02 03:28:00,61.9,60.2,29.75,SW,231,6.0,14.0,94,0.00,,,0.00,WUHU216DAVISVP2,2013-06-02 07:28:00,
2013-06-02 03:33:00,61.8,60.1,29.75,SW,235,12.0,14.0,94,0.00,,,0.00,WUHU216DAVISVP2,2013-06-02 07:33:00,
2013-06-02 03:38:00,61.9,60.2,29.75,SW,226,11.0,14.0,94,0.00,,,0.00,WUHU216DAVISVP2,2013-06-02 07:38:00,
2013-06-02 03:50:00,61.8,60.1,29.75,WSW,238,9.0,15.0,94,0.00,,,0.00,WUHU216DAVISVP2,2013-06-02 07:50:00,
2013-06-02 03:55:00,61.7,59.9,29.76,SW,228,8.0,15.0,94,0.00,,,0.00,WUHU216DAVISVP2,2013-06-02 07:55:00,
2013-06-02 04:12:00,61.6,59.8,29.75,WSW,240,9.0,12.0,94,0.00,,,0.00,WUHU216DAVISVP2,2013-06-02 08:12:00,
2013-06-02 04:17:00,61.6,59.8,29.76,WSW,238,12.0,13.0,94,0.00,,,0.00,WUHU216DAVISVP2,2013-06-02 08:17:00,
2013-06-02 04:34:00,61.5,59.7,29.76,SW,235,8.0,13.0,94,0.00,,,0.00,WUHU216DAVISVP2,2013-06-02 08:34:00,
2013-06-02 04:39:00,61.5,59.7,29.76,WSW,246,10.0,14.0,94,0.00,,,0.00,WUHU216DAVISVP2,2013-06-02 08:39:00,
2013-06-02 04:44:00,61.5,59.7,29.76,SW,231,9.0,15.0,94,0.00,,,0.00,WUHU216DAVISVP2,2013-06-02 08:44:00,
2013-06-02 04:56:00,61.6,59.8,29.77,SW,233,15.0,15.0,94,0.00,,,0.00,WUHU216DAVISVP2,2013-06-02 08:56:00,
2013-06-02 05:01:00,61.7,59.9,29.77,SW,231,14.0,15.0,94,0.00,,,0.00,WUHU216DAVISVP2,2013-06-02 09:01:00,
2013-06-02 05:06:00,61.8,60.0,29.77,WSW,246,13.0,15.0,94,0.00,,,0.00,WUHU216DAVISVP2,2013-06-02 09:06:00,
2013-06-02 05:17:00,61.8,59.7,29.76,WSW,238,10.0,15.0,93,0.00,,,0.00,WUHU216DAVISVP2,2013-06-02 09:17:00,
2013-06-02 05:22:00,61.7,59.6,29.76,WSW,248,10.0,14.0,93,0.00,,,0.00,WUHU216DAVISVP2,2013-06-02 09:22:00,
2013-06-02 05:27:00,61.6,59.5,29.77,WSW,242,11.0,14.0,93,0.00,,,0.00,WUHU216DAVISVP2,2013-06-02 09:27:00,
2013-06-02 05:39:00,61.3,59.2,29.77,WSW,246,10.0,16.0,93,0.00,,,0.00,WUHU216DAVISVP2,2013-06-02 09:39:00,
2013-06-02 05:44:00,61.3,59.5,29.77,SW,235,10.0,16.0,94,0.00,,,0.00,WUHU216DAVISVP2,2013-06-02 09:44:00,
2013-06-02 05:49:00,61.1,59.3,29.78,SW,226,11.0,15.0,94,0.00,,,0.00,WUHU216DAVISVP2,2013-06-02 09:49:00,
2013-06-02 06:01:00,61.1,59.3,29.79,SW,228,10.0,15.0,94,0.00,,,0.00,WUHU216DAVISVP2,2013-06-02 10:01:00,
2013-06-02 06:06:00,61.1,59.3,29.79,WSW,241,9.0,15.0,94,0.00,,,0.00,WUHU216DAVISVP2,2013-06-02 10:06:00,
2013-06-02 06:11:00,61.1,59.3,29.79,SW,233,13.0,14.0,94,0.00,,,0.00,WUHU216DAVISVP2,2013-06-02 10:11:00,
2013-06-02 06:23:00,61.2,59.4,29.80,WSW,243,8.0,15.0,94,0.00,,,0.00,WUHU216DAVISVP2,2013-06-02 10:23:00,
2013-06-02 06:28:00,61.2,59.4,29.80,WSW,241,12.0,15.0,94,0.00,,,0.00,WUHU216DAVISVP2,2013-06-02 10:28:00,
2013-06-02 06:33:00,61.2,59.1,29.80,WSW,254,12.0,15.0,93,0.00,,,0.00,WUHU216DAVISVP2,2013-06-02 10:33:00,
2013-06-02 06:45:00,61.3,59.2,29.81,WSW,256,9.0,17.0,93,0.00,,,0.00,WUHU216DAVISVP2,2013-06-02 10:45:00,
2013-06-02 06:50:00,61.3,59.2,29.81,WSW,238,9.0,16.0,93,0.00,,,0.00,WUHU216DAVISVP2,2013-06-02 10:50:00,
2013-06-02 06:55:00,61.4,59.3,29.80,SW,231,14.0,19.0,93,0.00,,,0.00,WUHU216DAVISVP2,2013-06-02 10:55:00,
2013-06-02 07:07:00,61.6,59.5,29.81,West,267,8.0,19.0,93,0.00,,,0.00,WUHU216DAVISVP2,2013-06-02 11:07:00,
2013-06-02 07:12:00,61.6,59.5,29.81,WSW,256,12.0,19.0,93,0.00,,,0.00,WUHU216DAVISVP2,2013-06-02 11:12:00,
2013-06-02 07:29:00,61.8,59.7,29.81,West,267,7.0,16.0,93,0.00,,,0.00,WUHU216DAVISVP2,2013-06-02 11:29:00,
2013-06-02 07:34:00,61.8,59.4,29.82,West,259,9.0,15.0,92,0.00,,,0.00,WUHU216DAVISVP2,2013-06-02 11:34:00,
2013-06-02 07:51:00,62.0,59.9,29.82,West,262,6.0,13.0,93,0.00,,,0.00,WUHU216DAVISVP2,2013-06-02 11:51:00,
2013-06-02 07:56:00,62.0,59.6,29.82,WSW,257,4.0,13.0,92,0.00,,,0.00,WUHU216DAVISVP2,2013-06-02 11:56:00,
2013-06-02 08:13:00,62.3,59.9,29.83,WSW,256,8.0,13.0,92,0.00,,,0.00,WUHU216DAVISVP2,2013-06-02 12:13:00,
2013-06-02 08:18:00,62.4,60.0,29.83,WSW,253,11.0,13.0,92,0.00,,,0.00,WUHU216DAVISVP2,2013-06-02 12:18:00,
2013-06-02 08:23:00,62.5,60.1,29.83,SW,235,9.0,12.0,92,0.00,,,0.00,WUHU216DAVISVP2,2013-06-02 12:23:00,
2013-06-02 08:35:00,62.5,59.8,29.83,WSW,257,8.0,15.0,91,0.00,,,0.00,WUHU216DAVISVP2,2013-06-02 12:35:00,
2013-06-02 08:40:00,62.5,59.8,29.84,WSW,249,12.0,15.0,91,0.00,,,0.00,WUHU216DAVISVP2,2013-06-02 12:40:00,
2013-06-02 08:45:00,62.6,60.2,29.84,WSW,253,10.0,14.0,92,0.00,,,0.00,WUHU216DAVISVP2,2013-06-02 12:45:00,
2013-06-02 08:57:00,62.7,60.0,29.84,WSW,246,8.0,14.0,91,0.00,,,0.00,WUHU216DAVISVP2,2013-06-02 12:57:00,
2013-06-02 09:02:00,62.7,60.0,29.84,SW,236,11.0,13.0,91,0.00,,,0.00,WUHU216DAVISVP2,2013-06-02 13:02:00,
2013-06-02 09:07:00,62.6,60.2,29.84,WSW,253,7.0,12.0,92,0.00,,,0.00,WUHU216DAVISVP2,2013-06-02 13:07:00,
2013-06-02 09:18:00,62.7,60.0,29.84,WSW,243,6.0,12.0,91,0.00,,,0.00,WUHU216DAVISVP2,2013-06-02 13:18:00,
2013-06-02 09:23:00,62.8,60.4,29.84,WSW,253,10.0,11.0,92,0.00,,,0.00,WUHU216DAVISVP2,2013-06-02 13:23:00,
2013-06-02 09:28:00,62.7,60.0,29.84,WSW,246,6.0,10.0,91,0.00,,,0.00,WUHU216DAVISVP2,2013-06-02 13:28:00,
2013-06-02 09:40:00,62.6,59.9,29.84,West,262,8.0,11.0,91,0.00,,,0.00,WUHU216DAVISVP2,2013-06-02 13:40:00,
2013-06-02 09:45:00,62.6,59.9,29.84,WSW,255,6.0,11.0,91,0.00,,,0.00,WUHU216DAVISVP2,2013-06-02 13:45:00,
2013-06-02 09:50:00,62.6,59.9,29.84,West,260,5.0,11.0,91,0.00,,,0.00,WUHU216DAVISVP2,2013-06-02 13:50:00,
2013-06-02 10:02:00,62.9,60.5,29.84,West,270,4.0,12.0,92,0.00,,,0.00,WUHU216DAVISVP2,2013-06-02 14:02:00,
2013-06-02 10:07:00,63.4,60.7,29.84,WSW,257,8.0,11.0,91,0.00,,,0.00,WUHU216DAVISVP2,2013-06-02 14:07:00,
2013-06-02 10:12:00,63.3,60.3,29.84,West,274,5.0,11.0,90,0.00,,,0.00,WUHU216DAVISVP2,2013-06-02 14:12:00,
2013-06-02 10:24:00,63.5,60.2,29.84,WNW,283,2.0,11.0,89,0.00,,,0.00,WUHU216DAVISVP2,2013-06-02 14:24:00,
2013-06-02 10:29:00,63.8,60.2,29.85,West,263,8.0,9.0,88,0.00,,,0.00,WUHU216DAVISVP2,2013-06-02 14:29:00,
2013-06-02 10:34:00,64.0,60.0,29.85,West,259,8.0,12.0,87,0.00,,,0.00,WUHU216DAVISVP2,2013-06-02 14:34:00,
2013-06-02 10:46:00,64.5,60.5,29.85,West,264,8.0,13.0,87,0.00,,,0.00,WUHU216DAVISVP2,2013-06-02 14:46:00,
2013-06-02 10:51:00,64.7,60.4,29.85,WSW,238,10.0,12.0,86,0.00,,,0.00,WUHU216DAVISVP2,2013-06-02 14:51:00,
2013-06-02 10:56:00,64.6,60.6,29.85,WSW,256,6.0,12.0,87,0.00,,,0.00,WUHU216DAVISVP2,2013-06-02 14:56:00,
2013-06-02 11:08:00,64.6,60.3,29.86,West,263,8.0,13.0,86,0.00,,,0.00,WUHU216DAVISVP2,2013-06-02 15:08:00,
2013-06-02 11:13:00,64.8,60.8,29.86,WSW,250,11.0,13.0,87,0.00,,,0.00,WUHU216DAVISVP2,2013-06-02 15:13:00,
2013-06-02 11:18:00,65.1,60.8,29.86,SW,233,9.0,13.0,86,0.00,,,0.00,WUHU216DAVISVP2,2013-06-02 15:18:00,
2013-06-02 11:30:00,63.7,59.4,29.87,WNW,299,8.0,14.0,86,0.00,,,0.00,WUHU216DAVISVP2,2013-06-02 15:30:00,
2013-06-02 11:35:00,62.2,58.6,29.87,NW,312,10.0,14.0,88,0.00,,,0.00,WUHU216DAVISVP2,2013-06-02 15:35:00,
2013-06-02 11:52:00,61.0,58.3,29.88,WNW,299,9.0,12.0,91,0.00,,,0.00,WUHU216DAVISVP2,2013-06-02 15:52:00,
2013-06-02 11:57:00,61.3,58.9,29.88,WNW,296,7.0,12.0,92,0.00,,,0.00,WUHU216DAVISVP2,2013-06-02 15:57:00,
2013-06-02 12:14:00,62.3,59.3,29.88,WNW,300,8.0,14.0,90,0.00,,,0.00,WUHU216DAVISVP2,2013-06-02 16:14:00,
2013-06-02 12:19:00,62.0,58.4,29.88,NW,311,10.0,14.0,88,0.00,,,0.00,WUHU216DAVISVP2,2013-06-02 16:19:00,
2013-06-02 12:24:00,61.8,58.2,29.89,NW,321,9.0,14.0,88,0.00,,,0.00,WUHU216DAVISVP2,2013-06-02 16:24:00,
2013-06-02 12:36:00,61.0,57.7,29.89,NW,325,11.0,13.0,89,0.00,,,0.00,WUHU216DAVISVP2,2013-06-02 16:36:00,
2013-06-02 12:41:00,60.6,57.3,29.89,NW,321,8.0,14.0,89,0.00,,,0.00,WUHU216DAVISVP2,2013-06-02 16:41:00,
2013-06-02 12:46:00,60.3,57.0,29.90,NNW,330,8.0,14.0,89,0.00,,,0.00,WUHU216DAVISVP2,2013-06-02 16:46:00,
2013-06-02 12:58:00,60.1,56.5,29.90,NW,306,9.0,14.0,88,0.00,,,0.00,WUHU216DAVISVP2,2013-06-02 16:58:00,
2013-06-02 13:03:00,60.2,56.9,29.91,NW,318,4.0,12.0,89,0.00,,,0.00,WUHU216DAVISVP2,2013-06-02 17:03:00,
2013-06-02 13:08:00,60.6,57.3,29.91,NNW,337,8.0,12.0,89,0.00,,,0.00,WUHU216DAVISVP2,2013-06-02 17:08:00,
2013-06-02 13:19:00,60.7,56.8,29.91,NW,323,5.0,11.0,87,0.00,,,0.00,WUHU216DAVISVP2,2013-06-02 17:19:00,
2013-06-02 13:24:00,60.8,56.9,29.91,NW,308,10.0,12.0,87,0.00,,,0.00,WUHU216DAVISVP2,2013-06-02 17:24:00,
2013-06-02 13:29:00,60.6,56.4,29.91,NW,318,7.0,14.0,86,0.00,,,0.00,WUHU216DAVISVP2,2013-06-02 17:29:00,
2013-06-02 13:41:00,60.3,56.1,29.92,NW,318,8.0,14.0,86,0.00,,,0.00,WUHU216DAVISVP2,2013-06-02 17:41:00,
2013-06-02 13:46:00,60.3,56.1,29.92,NW,308,8.0,13.0,86,0.00,,,0.00,WUHU216DAVISVP2,2013-06-02 17:46:00,
2013-06-02 13:51:00,60.6,56.4,29.92,NW,311,7.0,13.0,86,0.00,,,0.00,WUHU216DAVISVP2,2013-06-02 17:51:00,
2013-06-02 14:03:00,60.9,56.4,29.92,NW,311,4.0,15.0,85,0.00,,,0.00,WUHU216DAVISVP2,2013-06-02 18:03:00,
2013-06-02 14:08:00,60.9,56.7,29.92,WNW,288,11.0,15.0,86,0.00,,,0.00,WUHU216DAVISVP2,2013-06-02 18:08:00,
2013-06-02 14:13:00,61.1,56.6,29.92,WNW,300,4.0,15.0,85,0.00,,,0.00,WUHU216DAVISVP2,2013-06-02 18:13:00,
2013-06-02 14:25:00,61.4,56.2,29.92,NNW,328,9.0,16.0,83,0.00,,,0.00,WUHU216DAVISVP2,2013-06-02 18:25:00,
2013-06-02 14:30:00,61.1,55.9,29.92,NW,306,10.0,16.0,83,0.00,,,0.00,WUHU216DAVISVP2,2013-06-02 18:30:00,
2013-06-02 14:47:00,60.5,55.3,29.93,WNW,302,11.0,16.0,83,0.00,,,0.00,WUHU216DAVISVP2,2013-06-02 18:47:00,
2013-06-02 14:52:00,60.3,55.5,29.93,NW,308,10.0,16.0,84,0.00,,,0.00,WUHU216DAVISVP2,2013-06-02 18:52:00,
2013-06-02 14:57:00,60.2,55.0,29.93,NNW,330,7.0,16.0,83,0.00,,,0.00,WUHU216DAVISVP2,2013-06-02 18:57:00,
2013-06-02 15:09:00,60.6,55.4,29.94,NW,309,11.0,14.0,83,0.00,,,0.00,WUHU216DAVISVP2,2013-06-02 19:09:00,
2013-06-02 15:14:00,60.5,54.7,29.94,WNW,301,5.0,14.0,81,0.00,,,0.00,WUHU216DAVISVP2,2013-06-02 19:14:00,
2013-06-02 15:19:00,60.3,54.8,29.94,NW,309,11.0,14.0,82,0.00,,,0.00,WUHU216DAVISVP2,2013-06-02 19:19:00,
2013-06-02 15:31:00,60.9,56.1,29.94,NW,316,9.0,14.0,84,0.00,,,0.00,WUHU216DAVISVP2,2013-06-02 19:31:00,
2013-06-02 15:36:00,60.8,55.3,29.94,NNW,338,5.0,14.0,82,0.00,,,0.00,WUHU216DAVISVP2,2013-06-02 19:36:00,
2013-06-02 15:53:00,61.1,55.3,29.94,WNW,302,8.0,17.0,81,0.00,,,0.00,WUHU216DAVISVP2,2013-06-02 19:53:00,
2013-06-02 15:58:00,60.8,54.6,29.94,NNW,328,7.0,17.0,80,0.00,,,0.00,WUHU216DAVISVP2,2013-06-02 19:58:00,
2013-06-02 16:03:00,61.2,55.4,29.94,WNW,293,8.0,17.0,81,0.00,,,0.00,WUHU216DAVISVP2,2013-06-02 20:03:00,
2013-06-02 16:15:00,61.3,55.1,29.94,NW,307,13.0,16.0,80,0.00,,,0.00,WUHU216DAVISVP2,2013-06-02 20:15:00,
2013-06-02 16:20:00,61.1,55.3,29.94,WNW,299,8.0,16.0,81,0.00,,,0.00,WUHU216DAVISVP2,2013-06-02 20:20:00,
2013-06-02 16:25:00,60.9,55.1,29.94,NW,308,12.0,16.0,81,0.00,,,0.00,WUHU216DAVISVP2,2013-06-02 20:25:00,
2013-06-02 16:37:00,60.7,54.6,29.95,NNW,333,4.0,16.0,80,0.00,,,0.00,WUHU216DAVISVP2,2013-06-02 20:37:00,
2013-06-02 16:42:00,60.9,54.7,29.95,NW,315,3.0,16.0,80,0.00,,,0.00,WUHU216DAVISVP2,2013-06-02 20:42:00,
2013-06-02 16:47:00,60.9,54.4,29.95,NW,312,9.0,15.0,79,0.00,,,0.00,WUHU216DAVISVP2,2013-06-02 20:47:00,
2013-06-02 16:59:00,60.5,54.3,29.95,NW,316,6.0,15.0,80,0.00,,,0.00,WUHU216DAVISVP2,2013-06-02 20:59:00,
2013-06-02 17:04:00,60.3,53.8,29.95,WSW,253,3.0,15.0,79,0.00,,,0.00,WUHU216DAVISVP2,2013-06-02 21:04:00,
2013-06-02 17:09:00,60.3,53.5,29.95,West,263,4.0,14.0,78,0.00,,,0.00,WUHU216DAVISVP2,2013-06-02 21:09:00,
2013-06-02 17:20:00,60.6,54.0,29.96,NW,306,10.0,14.0,79,0.00,,,0.00,WUHU216DAVISVP2,2013-06-02 21:20:00,
2013-06-02 17:25:00,60.7,54.8,29.96,NW,307,7.0,13.0,81,0.00,,,0.00,WUHU216DAVISVP2,2013-06-02 21:25:00,
2013-06-02 17:42:00,60.3,54.1,29.95,NW,314,7.0,13.0,80,0.00,,,0.00,WUHU216DAVISVP2,2013-06-02 21:42:00,
2013-06-02 17:47:00,60.2,53.3,29.95,WNW,290,7.0,13.0,78,0.00,,,0.00,WUHU216DAVISVP2,2013-06-02 21:47:00,
2013-06-02 18:04:00,59.8,52.9,29.95,NW,316,9.0,15.0,78,0.00,,,0.00,WUHU216DAVISVP2,2013-06-02 22:04:00,
2013-06-02 18:09:00,59.6,53.4,29.95,WNW,301,9.0,15.0,80,0.00,,,0.00,WUHU216DAVISVP2,2013-06-02 22:09:00,
2013-06-02 18:14:00,59.2,52.3,29.95,NW,314,9.0,15.0,78,0.00,,,0.00,WUHU216DAVISVP2,2013-06-02 22:14:00,
2013-06-02 18:26:00,58.6,52.2,29.95,NNW,328,14.0,15.0,79,0.00,,,0.00,WUHU216DAVISVP2,2013-06-02 22:26:00,
2013-06-02 18:31:00,58.6,52.5,29.95,NW,316,11.0,16.0,80,0.00,,,0.00,WUHU216DAVISVP2,2013-06-02 22:31:00,
2013-06-02 18:48:00,58.9,51.7,29.95,NNW,345,7.0,16.0,77,0.00,,,0.00,WUHU216DAVISVP2,2013-06-02 22:48:00,
2013-06-02 18:53:00,58.8,52.0,29.95,NW,315,11.0,16.0,78,0.00,,,0.00,WUHU216DAVISVP2,2013-06-02 22:53:00,
2013-06-02 18:58:00,58.3,51.5,29.96,NW,321,7.0,18.0,78,0.00,,,0.00,WUHU216DAVISVP2,2013-06-02 22:58:00,
2013-06-02 19:10:00,57.6,50.9,29.96,NW,322,11.0,18.0,78,0.00,,,0.00,WUHU216DAVISVP2,2013-06-02 23:10:00,
2013-06-02 19:15:00,57.6,50.5,29.96,NW,321,7.0,18.0,77,0.00,,,0.00,WUHU216DAVISVP2,2013-06-02 23:15:00,
2013-06-02 19:32:00,57.2,50.5,29.97,NW,318,10.0,20.0,78,0.00,,,0.00,WUHU216DAVISVP2,2013-06-02 23:32:00,
2013-06-02 19:37:00,57.0,50.3,29.97,NW,315,13.0,20.0,78,0.00,,,0.00,WUHU216DAVISVP2,2013-06-02 23:37:00,
2013-06-02 19:42:00,57.0,50.3,29.97,WNW,287,12.0,17.0,78,0.00,,,0.00,WUHU216DAVISVP2,2013-06-02 23:42:00,
2013-06-02 19:54:00,56.5,49.7,29.97,NW,325,8.0,19.0,78,0.00,,,0.00,WUHU216DAVISVP2,2013-06-02 23:54:00,
2013-06-02 19:59:00,56.4,50.0,29.97,NW,307,9.0,19.0,79,0.00,,,0.00,WUHU216DAVISVP2,2013-06-02 23:59:00,
2013-06-02 20:04:00,55.9,49.5,29.98,NNW,331,6.0,19.0,79,0.00,,,0.00,WUHU216DAVISVP2,2013-06-03 00:04:00,
2013-06-02 20:16:00,55.4,49.4,29.98,NW,318,9.0,16.0,80,0.00,,,0.00,WUHU216DAVISVP2,2013-06-03 00:16:00,
2013-06-02 20:21:00,55.2,49.2,29.98,NW,315,12.0,16.0,80,0.00,,,0.00,WUHU216DAVISVP2,2013-06-03 00:21:00,
2013-06-02 20:26:00,55.1,49.1,29.98,NW,321,8.0,15.0,80,0.00,,,0.00,WUHU216DAVISVP2,2013-06-03 00:26:00,
2013-06-02 20:38:00,54.6,48.6,29.98,NNW,345,10.0,16.0,80,0.00,,,0.00,WUHU216DAVISVP2,2013-06-03 00:38:00,
2013-06-02 20:43:00,54.3,47.6,29.98,NW,321,12.0,20.0,78,0.00,,,0.00,WUHU216DAVISVP2,2013-06-03 00:43:00,
2013-06-02 20:48:00,54.0,47.6,29.98,NW,321,9.0,20.0,79,0.00,,,0.00,WUHU216DAVISVP2,2013-06-03 00:48:00,
2013-06-02 21:00:00,53.5,46.9,29.98,NW,323,15.0,20.0,78,0.00,,,0.00,WUHU216DAVISVP2,2013-06-03 01:00:00,
2013-06-02 21:05:00,53.4,47.1,29.97,NNW,330,10.0,19.0,79,0.00,,,0.00,WUHU216DAVISVP2,2013-06-03 01:05:00,
2013-06-02 21:09:00,53.3,47.3,29.98,NW,305,14.0,19.0,80,0.00,,,0.00,WUHU216DAVISVP2,2013-06-03 01:09:00,
2013-06-02 21:21:00,53.0,47.0,29.98,WNW,291,7.0,19.0,80,0.00,,,0.00,WUHU216DAVISVP2,2013-06-03 01:21:00,
2013-06-02 21:26:00,52.9,47.6,29.98,NW,311,8.0,19.0,82,0.00,,,0.00,WUHU216DAVISVP2,2013-06-03 01:26:00,
2013-06-02 21:31:00,52.8,47.5,29.99,NW,311,8.0,14.0,82,0.00,,,0.00,WUHU216DAVISVP2,2013-06-03 01:31:00,
2013-06-02 21:43:00,52.2,45.9,29.99,NNW,334,8.0,16.0,79,0.00,,,0.00,WUHU216DAVISVP2,2013-06-03 01:43:00,
2013-06-02 21:48:00,52.0,46.1,29.99,NW,311,5.0,16.0,80,0.00,,,0.00,WUHU216DAVISVP2,2013-06-03 01:48:00,
2013-06-02 21:53:00,51.9,46.0,29.99,NW,305,7.0,16.0,80,0.00,,,0.00,WUHU216DAVISVP2,2013-06-03 01:53:00,
2013-06-02 22:05:00,51.6,44.6,30.00,NW,319,12.0,15.0,77,0.00,,,0.00,WUHU216DAVISVP2,2013-06-03 02:05:00,
2013-06-02 22:10:00,51.3,44.4,30.00,NNW,336,7.0,15.0,77,0.00,,,0.00,WUHU216DAVISVP2,2013-06-03 02:10:00,
2013-06-02 22:27:00,50.7,44.4,30.00,NW,307,7.0,14.0,79,0.00,,,0.00,WUHU216DAVISVP2,2013-06-03 02:27:00,
2013-06-02 22:32:00,50.5,44.6,30.00,NW,311,9.0,14.0,80,0.00,,,0.00,WUHU216DAVISVP2,2013-06-03 02:32:00,
2013-06-02 22:37:00,50.3,44.4,30.01,West,271,3.0,12.0,80,0.00,,,0.00,WUHU216DAVISVP2,2013-06-03 02:37:00,
2013-06-02 22:49:00,49.8,44.2,30.01,NW,307,5.0,10.0,81,0.00,,,0.00,WUHU216DAVISVP2,2013-06-03 02:49:00,
2013-06-02 22:54:00,49.6,44.0,30.01,NW,309,3.0,9.0,81,0.00,,,0.00,WUHU216DAVISVP2,2013-06-03 02:54:00,
2013-06-02 22:59:00,49.5,43.9,30.01,NW,316,4.0,9.0,81,0.00,,,0.00,WUHU216DAVISVP2,2013-06-03 02:59:00,
2013-06-02 23:11:00,49.2,44.3,30.01,NW,318,3.0,9.0,83,0.00,,,0.00,WUHU216DAVISVP2,2013-06-03 03:11:00,
2013-06-02 23:16:00,49.1,44.2,30.02,NW,314,5.0,8.0,83,0.00,,,0.00,WUHU216DAVISVP2,2013-06-03 03:16:00,
2013-06-02 23:33:00,48.8,43.9,30.03,NW,314,2.0,9.0,83,0.00,,,0.00,WUHU216DAVISVP2,2013-06-03 03:33:00,
2013-06-02 23:38:00,48.7,43.8,30.03,NW,308,4.0,9.0,83,0.00,,,0.00,WUHU216DAVISVP2,2013-06-03 03:38:00,
2013-06-02 23:55:00,48.4,43.2,30.03,NW,314,5.0,7.0,82,0.00,,,0.00,WUHU216DAVISVP2,2013-06-03 03:55:00,